Vorticity
4 3 2 3 2 11 14 15 11 5 3 2 2 2 2 2 3 4 11 16 18 15 12 9 5 6 6 9 10 27 34 18 15 2 4 4 14 14 3 6 -4 9 11
3 2 2 5 12 12 12 7 5 3 2 3 3 3 3 3 2 7 19 15 14 12 7 4 7 7 9 21 31 15 8 2 2 4 11 16 11 4 -0 -1 -4 -3 6
3 3 6 12 13 9 6 3 3 3 3 3 2 3 0 7 17 21 12 9 6 6 7 6 7 17 33 20 11 6 2 4 5 16 13 10 5 -1 7 4 -0 10 -1
4 8 12 11 9 5 4 3 3 2 2 2 2 6 13 24 16 9 8 10 8 8 6 9 21 25 11 10 5 3 2 8 11 8 12 5 9 12 -1 7 4 15 13
8 11 11 8 5 3 2 1 -0 -1 2 12 21 19 11 5 8 10 8 8 11 7 11 21 19 11 7 7 4 1 7 12 9 12 9 10 16 17 15 12 7 5 6
9 9 7 5 2 1 -1 0 1 7 19 10 5 11 12 12 11 9 10 10 8 14 23 14 10 5 7 4 7 7 13 6 12 6 5 6 7 10 7 11 14 4 5
8 5 3 -1 -2 -1 3 10 16 12 5 9 10 7 6 7 10 12 10 11 23 20 14 8 4 7 7 9 7 15 7 9 10 4 7 6 7 -0 1 1 3 13 5
2 -0 1 5 10 14 15 11 9 6 10 7 10 13 15 18 16 11 23 28 17 15 9 4 7 7 10 8 10 11 6 7 13 7 6 4 2 -5 -0 1 6 9 6
8 13 16 15 14 7 4 7 10 8 13 21 5 14 31 30 21 27 25 19 12 8 5 6 7 8 8 10 12 8 7 5 13 13 8 5 3 2 0 3 3 10 11
15 8 3 4 6 7 10 15 21 29 13 12 14 24 26 24 24 19 17 12 8 5 4 5 6 6 6 8 11 9 7 9 13 15 16 11 9 7 4 5 7 13 8
3 7 9 8 11 27 33 23 10 5 6 14 18 16 16 14 15 19 15 9 7 5 5 4 4 3 7 6 9 8 6 7 8 11 12 12 10 8 9 8 11 14 14
9 11 13 35 16 5 7 4 5 6 11 18 15 15 7 9 14 13 12 8 5 6 6 4 3 2 4 7 6 5 4 4 5 8 9 12 10 8 7 7 7 11 14
13 22 11 5 6 5 4 3 5 8 9 12 19 6 7 9 10 10 12 12 1 4 8 4 5 2 2 3 6 7 6 6 7 6 8 8 8 6 6 4 5 6 11
12 8 7 5 4 5 8 10 12 12 10 10 11 1 10 12 6 6 8 10 11 1 6 9 5 5 2 1 1 2 3 4 5 7 9 7 5 5 6 5 5 6 7
4 4 6 9 13 16 16 14 17 18 13 9 6 4 -1 -2 15 8 6 5 12 1 7 9 7 7 5 3 2 3 4 4 3 3 5 7 8 6 5 5 5 6 6
6 17 19 13 14 13 10 11 11 11 20 19 11 3 1 9 7 15 6 5 9 4 7 7 6 7 6 5 4 4 4 5 7 6 3 3 6 7 6 5 5 5 5
12 12 9 5 4 5 5 3 8 7 13 41 19 14 8 9 4 29 9 2 5 9 5 6 4 5 7 5 4 4 2 3 5 6 8 6 4 5 6 7 6 4 4
8 8 6 6 6 4 3 3 4 6 5 27 27 14 10 6 15 30 13 8 7 6 6 5 6 4 5 5 6 6 5 3 1 2 4 9 5 3 5 7 6 5 4
4 5 5 1 4 5 7 7 7 6 5 9 23 11 8 9 14 22 13 3 7 10 7 5 4 3 3 4 3 3 3 5 3 3 2 5 7 5 5 7 6 5 5
7 9 9 7 5 6 8 6 6 7 5 7 7 12 9 7 16 16 13 1 3 6 9 9 7 6 4 6 4 4 3 2 2 1 2 1 5 7 5 5 6 5 5
7 8 9 9 8 10 11 9 9 11 14 11 8 7 4 11 20 22 13 6 1 3 6 8 7 6 6 6 6 5 4 4 3 2 3 2 5 7 5 5 4 4 5
9 11 16 12 11 16 13 11 9 9 6 7 10 12 11 8 6 15 27 20 5 3 4 4 3 5 6 5 4 4 3 3 2 4 1 5 7 10 8 7 7 6 10
7 3 6 6 3 2 3 7 6 7 7 7 4 1 1 6 11 11 8 15 26 10 4 5 3 1 2 2 1 -0 -2 2 5 1 5 9 9 7 6 6 8 12 9
6 5 7 7 6 6 5 5 3 2 3 4 3 2 4 6 8 4 6 10 9 10 22 10 5 3 -3 3 2 -1 -2 4 7 11 14 12 12 11 12 12 13 10 12
4 7 8 4 3 4 7 8 9 8 8 9 8 8 7 7 7 6 5 6 7 8 11 11 10 8 7 8 6 6 12 12 9 6 6 8 9 11 8 7 8 9 8
3 5 6 6 7 7 7 5 6 4 4 2 2 4 5 6 4 4 5 5 5 6 6 6 7 9 8 9 9 8 8 8 8 7 5 6 7 5 5 7 7 2 4
Height
5833 5834 5834 5833 5831 5829 5827 5826 5825 5824 5823 5821 5819 5816 5813 5810 5807 5804 5800 5797 5793 5790 5787 5784 5782 5779 5776 5772 5768 5765 5763 5762 5762 5759 5756 5753 5751 5749 5747 5744 5741 5735 5728
5828 5828 5828 5826 5824 5821 5820 5819 5818 5817 5816 5813 5811 5808 5805 5801 5797 5793 5790 5786 5784 5782 5779 5776 5773 5770 5767 5763 5761 5759 5758 5757 5756 5754 5750 5747 5744 5740 5738 5735 5730 5722 5712
5822 5821 5819 5818 5816 5814 5812 5811 5810 5809 5807 5804 5802 5798 5795 5791 5787 5783 5781 5777 5774 5772 5769 5767 5764 5761 5758 5757 5756 5754 5752 5750 5749 5747 5745 5743 5740 5735 5729 5725 5718 5710 5699
5814 5813 5811 5810 5808 5807 5805 5803 5802 5800 5797 5794 5791 5787 5783 5780 5776 5773 5771 5769 5766 5764 5761 5758 5755 5753 5752 5752 5751 5749 5747 5744 5742 5740 5738 5736 5733 5730 5726 5716 5708 5701 5689
5806 5805 5803 5802 5801 5799 5798 5795 5793 5790 5786 5783 5779 5775 5772 5770 5766 5764 5762 5759 5757 5755 5752 5750 5749 5748 5747 5746 5745 5743 5741 5739 5737 5734 5732 5729 5725 5721 5717 5711 5701 5692 5680
5797 5796 5796 5794 5792 5790 5788 5785 5782 5779 5775 5772 5769 5766 5762 5759 5756 5754 5753 5751 5749 5747 5745 5744 5743 5743 5742 5741 5740 5738 5735 5733 5731 5729 5727 5725 5720 5714 5709 5703 5696 5686 5674
5789 5788 5787 5785 5783 5780 5777 5774 5771 5768 5765 5762 5759 5755 5752 5749 5746 5744 5743 5741 5740 5740 5740 5739 5738 5737 5737 5735 5734 5732 5730 5728 5726 5723 5722 5719 5715 5710 5704 5697 5689 5680 5670
5780 5779 5778 5775 5772 5769 5766 5764 5761 5758 5755 5751 5748 5744 5740 5737 5736 5735 5733 5733 5733 5733 5734 5734 5733 5733 5731 5730 5728 5727 5726 5723 5720 5718 5717 5714 5709 5704 5698 5692 5684 5676 5668
5771 5770 5767 5764 5762 5760 5757 5754 5750 5748 5745 5741 5737 5734 5729 5727 5727 5725 5726 5727 5728 5729 5730 5729 5728 5728 5727 5725 5723 5723 5721 5718 5715 5713 5711 5708 5704 5699 5693 5687 5680 5672 5666
5762 5760 5758 5755 5753 5749 5746 5744 5741 5738 5735 5732 5728 5723 5721 5721 5721 5720 5720 5722 5723 5724 5725 5725 5725 5724 5723 5721 5720 5718 5716 5714 5711 5708 5705 5702 5699 5694 5689 5682 5676 5669 5663
5753 5751 5749 5746 5743 5740 5737 5734 5733 5731 5728 5724 5721 5718 5717 5716 5716 5717 5718 5719 5720 5720 5721 5721 5721 5720 5719 5717 5715 5713 5712 5709 5706 5703 5700 5697 5693 5689 5684 5678 5672 5666 5660
5744 5742 5741 5738 5736 5734 5731 5729 5726 5724 5722 5719 5717 5713 5712 5712 5712 5712 5713 5715 5716 5716 5717 5716 5717 5716 5714 5713 5711 5709 5707 5705 5701 5699 5696 5693 5689 5685 5680 5675 5670 5664 5659
5736 5735 5733 5731 5729 5727 5724 5722 5719 5718 5716 5713 5711 5709 5708 5708 5708 5708 5709 5710 5711 5712 5712 5712 5712 5711 5709 5708 5706 5704 5703 5700 5697 5694 5691 5688 5684 5681 5676 5672 5667 5662 5657
5730 5729 5727 5725 5723 5720 5717 5714 5712 5710 5708 5706 5705 5704 5704 5704 5703 5703 5704 5705 5706 5706 5706 5706 5706 5705 5704 5702 5700 5699 5697 5695 5692 5689 5686 5683 5679 5675 5672 5668 5664 5659 5655
5723 5722 5720 5718 5714 5712 5709 5706 5703 5701 5700 5699 5698 5697 5697 5698 5697 5697 5698 5699 5699 5698 5699 5699 5699 5698 5697 5696 5694 5693 5691 5689 5686 5683 5680 5677 5674 5670 5666 5662 5659 5655 5650
5716 5714 5712 5710 5708 5705 5703 5700 5697 5694 5692 5690 5689 5689 5689 5690 5689 5689 5690 5690 5691 5691 5691 5691 5691 5690 5689 5688 5687 5685 5684 5681 5679 5676 5673 5670 5667 5663 5660 5656 5652 5649 5645
5709 5707 5706 5704 5701 5699 5698 5695 5691 5687 5683 5679 5679 5680 5681 5681 5680 5678 5679 5680 5680 5682 5683 5682 5682 5682 5680 5680 5679 5677 5676 5673 5670 5668 5665 5662 5659 5656 5652 5648 5645 5641 5637
5703 5701 5699 5697 5694 5693 5691 5688 5684 5680 5676 5672 5672 5672 5672 5671 5668 5668 5669 5670 5672 5673 5673 5672 5673 5672 5670 5670 5669 5668 5667 5665 5662 5659 5656 5653 5650 5648 5644 5640 5636 5633 5629
5695 5693 5691 5689 5687 5685 5683 5680 5676 5673 5671 5668 5666 5664 5662 5661 5659 5658 5660 5662 5663 5664 5664 5664 5663 5662 5661 5659 5659 5658 5657 5655 5651 5649 5646 5643 5640 5637 5634 5631 5627 5623 5620
5685 5684 5682 5679 5678 5676 5674 5671 5668 5666 5664 5661 5659 5656 5655 5654 5652 5651 5651 5651 5652 5653 5653 5653 5652 5651 5650 5647 5646 5645 5645 5643 5640 5637 5635 5631 5629 5625 5622 5620 5616 5613 5610
5675 5673 5670 5668 5666 5665 5664 5661 5659 5657 5655 5653 5650 5648 5646 5644 5643 5643 5641 5642 5642 5642 5641 5641 5639 5638 5637 5635 5633 5632 5632 5631 5629 5626 5622 5618 5617 5614 5609 5606 5602 5600 5598
5664 5663 5661 5658 5656 5654 5654 5652 5650 5648 5646 5643 5640 5638 5636 5635 5633 5632 5630 5629 5629 5629 5629 5628 5628 5625 5623 5621 5619 5617 5616 5616 5616 5613 5608 5604 5603 5600 5596 5592 5589 5586 5584
5654 5651 5650 5648 5645 5643 5641 5641 5639 5637 5635 5633 5631 5629 5627 5624 5621 5620 5619 5618 5616 5615 5615 5613 5613 5612 5609 5607 5604 5603 5602 5600 5598 5596 5592 5589 5586 5583 5580 5576 5574 5571 5569
5641 5639 5638 5636 5634 5631 5628 5627 5626 5624 5623 5621 5619 5616 5614 5612 5609 5607 5605 5603 5602 5601 5600 5599 5598 5596 5594 5590 5587 5586 5584 5582 5580 5578 5576 5572 5569 5566 5563 5560 5557 5556 5553
5628 5626 5624 5622 5620 5618 5615 5613 5611 5609 5607 5606 5604 5602 5600 5597 5595 5593 5590 5589 5587 5585 5583 5581 5580 5578 5575 5573 5571 5568 5565 5562 5560 5559 5556 5553 5551 5549 5546 5544 5541 5539 5537
5612 5610 5607 5605 5604 5602 5599 5598 5595 5594 5592 5589 5587 5585 5584 5581 5579 5577 5573 5571 5569 5566 5564 5562 5560 5557 5555 5553 5550 5548 5546 5543 5541 5539 5536 5533 5531 5529 5528 5526 5524 5521 5520